Location: Larkspur
(54.4391°N, 113.7691°W)
Time: 13:18:23
(UTC+00:00)

METEOR M2 - Pass Details

Date: 04 December 2023
Orbit: 819 x 826 km, 98.4° (Epoch: 02 March)

Event Time Altitude Azimuth Distance (km) Brightness Sun altitude
Rises 01:32:52 0° 200° (SSW) 3,355 ? -19.0°
Reaches altitude 10° 01:35:36 10° 213° (SSW) 2,427 ? -19.4°
Maximum altitude 01:40:03 26° 269° (W) 1,577 ? -20.0°
Drops below altitude 10° 01:44:33 10° 325° (NW) 2,440 ? -20.7°
Sets 01:47:19 0° 338° (NNW) 3,378 ? -21.1°
